Temp
11 11 11 10 10 10 11 11 11 11 11 12 13 13 12 11 11 10 10 8 9 9 9 9 9 8 8 9 9 9 9 9 9 9 9 9 9 9 9 9 9 9 9 9 8 9 8 8 8
11 10 10 10 10 11 11 11 11 11 12 12 12 12 11 10 11 10 9 7 8 9 9 9 9 9 9 8 9 9 9 9 9 9 8 8 9 9 9 8 8 8 8 8 8 8 8 9 9
11 10 10 10 10 12 11 11 11 12 12 12 11 11 11 8 8 9 9 7 7 8 9 9 9 9 9 9 9 9 9 9 8 8 8 8 8 9 8 8 8 8 8 8 8 8 8 9 9
10 10 10 10 11 12 12 11 12 11 11 11 10 10 10 8 8 8 9 7 7 7 9 9 9 9 9 9 8 8 8 8 8 8 8 8 8 8 8 8 8 8 8 8 8 8 8 9 9
9 10 11 11 11 12 12 12 12 11 11 10 10 9 10 8 8 8 7 8 7 8 9 9 9 9 9 8 8 8 8 8 8 8 8 8 8 8 8 8 8 8 8 8 7 8 8 8 9
10 10 11 12 11 11 11 11 10 11 10 11 10 11 10 10 9 7 8 8 8 7 8 9 9 9 9 8 8 8 8 8 8 8 8 8 8 8 8 8 8 8 8 7 7 7 8 8 8
10 11 11 12 11 11 10 11 11 11 11 11 10 9 11 9 8 8 8 8 8 7 7 9 9 9 9 9 9 8 8 8 8 8 8 8 8 8 8 8 8 8 7 7 7 7 7 8 8
10 11 12 12 11 10 11 11 11 10 11 11 10 11 11 10 8 8 8 8 8 8 7 8 9 9 9 9 9 8 8 8 8 8 8 8 8 8 8 8 8 8 7 7 8 8 8 8 8
10 11 11 12 12 10 11 11 11 10 11 10 10 10 11 11 8 8 8 7 7 7 7 7 8 9 9 9 9 8 8 8 8 8 8 8 8 8 8 8 8 8 7 7 8 7 7 8 8
10 11 11 11 11 10 11 11 11 11 10 10 10 9 11 9 8 8 8 8 8 7 7 9 8 9 9 8 9 8 8 8 9 8 8 8 8 8 8 8 8 7 7 8 7 7 7 7 7
11 11 12 12 11 10 10 10 11 10 10 10 9 10 11 8 8 8 8 8 8 7 9 7 7 9 8 8 8 8 7 9 8 8 7 7 8 8 8 8 7 7 8 8 8 7 7 8 6
11 11 12 12 11 11 10 10 10 10 10 10 9 9 10 8 8 8 9 8 8 7 8 9 8 9 9 7 7 6 6 7 8 8 8 8 6 6 6 9 8 8 8 9 8 8 7 7 7
11 13 12 12 12 10 10 10 10 10 10 10 10 8 8 8 8 8 8 9 7 7 7 7 10 10 10 7 7 8 7 6 8 9 8 7 7 8 8 8 6 6 8 8 8 8 7 8 7
12 13 13 13 13 11 10 9 9 11 11 11 10 8 8 9 9 8 8 8 7 7 7 7 9 10 10 9 9 9 7 7 5 9 8 8 8 8 8 7 7 8 8 9 9 9 7 8 8
12 13 13 14 13 12 11 10 10 11 10 11 8 8 9 9 9 8 8 7 8 9 7 10 10 10 10 9 9 9 7 8 6 9 8 8 8 7 7 8 7 7 8 8 8 8 7 6 9
13 13 14 14 13 12 11 10 11 10 10 10 8 9 9 9 8 8 8 7 7 8 10 10 7 9 10 9 9 9 7 8 8 8 9 8 8 8 7 7 7 8 8 7 8 8 7 7 8
13 16 15 14 13 13 12 10 10 11 11 10 8 9 9 9 8 8 7 7 7 8 10 9 9 9 10 10 9 9 9 9 9 8 8 8 8 8 9 8 7 8 7 8 7 7 8 7 8
15 16 16 15 14 14 12 11 10 10 11 11 8 8 9 8 8 8 7 7 8 9 9 9 9 9 10 9 9 9 8 9 9 8 9 8 8 8 8 7 8 7 7 7 8 7 7 8 7
17 17 16 14 15 15 13 12 10 11 10 10 8 9 8 9 9 8 8 7 7 9 9 9 9 9 9 9 9 8 7 8 8 9 8 8 8 9 8 8 8 8 8 8 8 8 7 6 8
16 17 17 14 15 15 15 13 10 10 10 9 9 8 9 9 9 8 8 8 7 9 10 9 9 9 9 9 7 7 9 8 8 9 9 8 8 9 8 8 8 8 8 8 8 8 6 6 7
15 17 16 16 15 15 15 13 11 10 10 9 9 9 9 9 9 8 8 8 7 8 9 9 10 9 9 9 9 9 8 10 9 9 9 9 9 9 9 8 8 8 8 8 8 7 7 8 8
15 16 16 16 15 17 16 17 13 11 10 9 10 9 9 9 9 8 9 9 8 8 9 9 9 10 9 9 8 9 9 8 8 8 9 9 9 9 9 9 9 8 8 9 8 8 8 7 7
16 15 15 15 16 17 16 13 10 12 10 9 10 10 9 9 9 9 9 9 8 7 8 9 9 9 9 9 8 9 9 9 8 8 9 9 9 9 9 9 9 8 8 8 9 8 8 6 6
14 15 14 15 16 18 18 17 10 13 12 11 10 10 9 9 9 9 9 9 9 8 7 8 8 8 9 9 9 9 9 9 9 8 8 9 10 9 9 9 9 9 9 8 8 8 8 8 8
13 14 15 16 17 19 18 17 11 11 11 11 10 10 10 10 10 10 9 9 9 9 8 8 9 8 8 9 9 9 9 9 8 9 8 7 9 8 9 9 9 9 9 9 9 8 9 9 8
13 14 16 16 18 19 18 16 11 10 10 9 9 9 10 11 10 10 9 10 8 9 8 8 8 8 8 8 9 9 9 9 9 9 10 8 8 8 9 10 9 9 9 9 9 9 9 9 8
13 14 16 18 18 19 16 11 10 10 9 9 11 11 10 11 11 10 10 9 9 9 8 8 8 9 9 8 8 8 9 9 9 8 9 9 8 9 8 10 10 10 10 9 9 9 9 10 9
11 13 15 16 18 19 16 13 13 10 8 11 12 13 13 12 11 10 10 10 10 9 9 8 9 9 9 8 8 8 8 9 9 9 10 10 10 10 9 10 10 10 10 9 9 9 10 10 10
12 12 14 16 17 20 17 14 11 8 9 11 11 12 13 13 13 10 10 9 10 9 8 9 8 9 9 9 8 8 8 8 8 9 10 10 9 10 10 10 10 10 10 10 10 9 9 9 10
11 13 13 15 16 17 16 11 9 7 9 11 11 11 12 13 12 12 11 8 9 10 9 9 10 8 8 9 9 8 8 8 8 8 9 10 10 10 10 10 10 9 10 10 10 9 9 9 10
Height
3156 3157 3157 3158 3164 3158 3158 3160 3161 3162 3165 3169 3171 3174 3175 3173 3174 3179 3179 3182 3185 3188 3191 3193 3194 3196 3198 3199 3200 3201 3201 3202 3203 3203 3203 3204 3204 3205 3205 3205 3206 3206 3207 3208 3209 3209 3210 3210 3210
3156 3157 3157 3157 3160 3157 3159 3160 3161 3164 3168 3170 3172 3174 3175 3174 3174 3175 3180 3184 3188 3190 3193 3195 3196 3198 3199 3200 3201 3202 3203 3204 3204 3205 3205 3205 3206 3206 3206 3206 3206 3207 3208 3209 3210 3211 3212 3212 3213
3156 3157 3156 3155 3157 3157 3159 3161 3163 3166 3170 3172 3173 3173 3175 3175 3178 3179 3183 3187 3191 3192 3195 3196 3198 3199 3201 3202 3202 3203 3205 3205 3205 3206 3206 3207 3207 3208 3208 3208 3209 3209 3210 3211 3212 3214 3215 3215 3216
3157 3158 3156 3141 3158 3159 3161 3164 3166 3166 3169 3174 3175 3174 3175 3179 3182 3183 3185 3193 3196 3194 3197 3199 3200 3201 3203 3204 3205 3205 3206 3207 3207 3207 3208 3209 3209 3209 3209 3209 3209 3210 3211 3212 3214 3215 3216 3216 3219
3159 3158 3157 3157 3158 3162 3165 3168 3168 3169 3172 3174 3174 3176 3177 3181 3183 3185 3191 3197 3199 3196 3198 3200 3202 3203 3205 3206 3206 3207 3207 3208 3209 3210 3210 3210 3210 3211 3211 3211 3211 3212 3213 3215 3215 3217 3219 3221 3222
3159 3160 3159 3159 3161 3163 3164 3163 3168 3171 3171 3173 3175 3175 3178 3181 3185 3189 3196 3199 3202 3203 3199 3201 3204 3205 3206 3207 3208 3208 3209 3209 3210 3211 3211 3212 3212 3212 3212 3212 3212 3214 3216 3216 3217 3217 3219 3223 3223
3160 3160 3160 3160 3162 3163 3164 3164 3165 3172 3172 3174 3177 3178 3180 3183 3188 3194 3200 3202 3204 3206 3203 3204 3205 3207 3208 3209 3209 3210 3210 3210 3211 3212 3213 3213 3213 3213 3213 3213 3214 3216 3218 3220 3216 3220 3223 3223 3223
3162 3162 3161 3161 3161 3162 3163 3164 3167 3170 3171 3175 3178 3179 3181 3183 3190 3197 3203 3205 3205 3209 3208 3207 3208 3209 3210 3211 3212 3212 3212 3212 3213 3214 3214 3215 3215 3215 3215 3215 3217 3219 3221 3223 3222 3222 3223 3224 3224
3163 3164 3163 3162 3161 3161 3162 3165 3165 3169 3173 3176 3179 3180 3183 3185 3192 3199 3203 3202 3206 3208 3211 3210 3210 3211 3212 3212 3213 3213 3213 3214 3215 3216 3216 3218 3217 3217 3218 3219 3220 3222 3224 3224 3223 3227 3231 3230 3228
3165 3164 3165 3163 3161 3162 3163 3166 3166 3172 3174 3177 3181 3182 3184 3188 3194 3201 3205 3207 3207 3210 3214 3210 3211 3212 3214 3214 3215 3215 3216 3216 3217 3219 3220 3222 3222 3221 3221 3222 3224 3225 3226 3226 3229 3233 3222 3230 3234
3166 3167 3167 3166 3165 3164 3163 3164 3166 3169 3175 3177 3180 3181 3185 3190 3197 3203 3207 3210 3213 3214 3213 3213 3214 3214 3216 3218 3217 3217 3218 3218 3220 3221 3222 3224 3224 3225 3226 3227 3227 3228 3228 3228 3231 3235 3232 3234 3240
3167 3167 3168 3168 3168 3167 3165 3164 3166 3170 3173 3178 3180 3183 3187 3193 3199 3204 3209 3212 3214 3214 3214 3214 3214 3216 3217 3219 3224 3225 3223 3222 3223 3224 3225 3226 3227 3228 3231 3229 3232 3230 3224 3227 3226 3234 3238 3236 3235
3167 3168 3170 3169 3170 3166 3166 3165 3167 3170 3172 3176 3178 3184 3189 3196 3201 3206 3209 3213 3213 3214 3217 3215 3214 3217 3219 3221 3222 3223 3225 3227 3225 3226 3228 3229 3229 3229 3230 3232 3235 3235 3233 3232 3232 3234 3234 3234 3234
3168 3169 3170 3170 3171 3169 3166 3168 3169 3172 3174 3175 3177 3186 3192 3198 3203 3206 3210 3212 3211 3214 3216 3215 3215 3218 3220 3222 3224 3226 3228 3227 3229 3228 3230 3231 3232 3233 3233 3235 3237 3232 3235 3232 3236 3232 3238 3238 3238
3167 3169 3169 3170 3170 3170 3170 3170 3169 3171 3174 3176 3181 3189 3195 3200 3204 3207 3210 3211 3211 3213 3215 3216 3217 3219 3221 3223 3225 3227 3229 3230 3230 3230 3232 3233 3234 3235 3236 3237 3238 3239 3240 3241 3241 3239 3240 3244 3242
3167 3168 3167 3169 3169 3170 3170 3171 3171 3172 3176 3179 3187 3193 3197 3201 3204 3206 3210 3211 3212 3214 3215 3217 3219 3220 3222 3225 3227 3227 3230 3230 3231 3232 3233 3235 3235 3237 3238 3240 3241 3241 3242 3243 3243 3243 3244 3244 3244
3164 3161 3162 3167 3169 3169 3170 3171 3172 3174 3176 3180 3187 3193 3197 3201 3204 3206 3208 3211 3211 3213 3216 3218 3220 3221 3223 3225 3228 3229 3231 3232 3232 3235 3235 3236 3237 3238 3240 3240 3241 3242 3242 3242 3244 3246 3245 3246 3246
3158 3157 3157 3164 3168 3169 3169 3169 3170 3174 3177 3180 3187 3192 3196 3200 3204 3204 3208 3210 3211 3213 3215 3218 3220 3222 3224 3227 3228 3230 3232 3234 3235 3236 3237 3238 3238 3239 3240 3241 3242 3243 3245 3244 3245 3246 3248 3246 3249
3155 3155 3158 3158 3161 3167 3169 3171 3172 3174 3178 3181 3185 3189 3194 3198 3204 3205 3209 3210 3211 3212 3215 3217 3220 3222 3224 3227 3229 3231 3233 3234 3236 3236 3238 3239 3239 3240 3241 3241 3243 3241 3243 3243 3246 3247 3249 3250 3250
3152 3152 3154 3158 3161 3166 3168 3171 3174 3177 3181 3182 3184 3188 3191 3197 3203 3204 3208 3210 3211 3211 3214 3216 3219 3222 3223 3225 3229 3235 3233 3235 3237 3238 3239 3239 3240 3241 3241 3242 3244 3243 3244 3246 3247 3247 3250 3252 3250
3151 3148 3151 3158 3163 3165 3169 3171 3175 3176 3180 3182 3183 3187 3190 3197 3201 3202 3205 3208 3211 3210 3212 3216 3218 3221 3223 3224 3228 3232 3234 3235 3237 3238 3239 3240 3241 3241 3242 3243 3237 3245 3243 3246 3247 3249 3248 3250 3252
3151 3151 3153 3159 3163 3160 3164 3163 3170 3172 3175 3179 3182 3185 3189 3193 3198 3201 3201 3206 3212 3210 3212 3214 3217 3220 3222 3225 3228 3231 3234 3238 3238 3239 3240 3240 3241 3242 3243 3243 3245 3245 3245 3246 3247 3248 3249 3252 3254
3150 3152 3155 3159 3160 3158 3159 3165 3168 3168 3174 3177 3181 3184 3187 3191 3196 3197 3201 3204 3211 3211 3212 3214 3216 3219 3222 3224 3227 3230 3232 3235 3233 3239 3241 3240 3242 3243 3243 3243 3244 3245 3245 3248 3250 3248 3249 3252 3255
3150 3151 3158 3160 3157 3151 3151 3154 3164 3165 3171 3176 3179 3182 3185 3187 3191 3196 3199 3202 3207 3212 3212 3213 3216 3219 3221 3224 3226 3228 3231 3234 3236 3237 3240 3240 3242 3243 3244 3245 3245 3246 3247 3247 3247 3248 3249 3250 3251
3150 3153 3154 3155 3152 3145 3149 3153 3157 3163 3171 3175 3177 3181 3184 3186 3187 3191 3194 3199 3203 3210 3212 3213 3215 3218 3220 3223 3226 3228 3230 3233 3235 3238 3240 3239 3243 3244 3244 3245 3246 3246 3247 3247 3248 3249 3250 3251 3251
3147 3148 3143 3144 3142 3143 3143 3151 3164 3168 3173 3174 3175 3178 3179 3185 3188 3186 3192 3193 3199 3205 3209 3212 3214 3217 3219 3222 3225 3227 3229 3231 3233 3236 3239 3241 3244 3247 3245 3245 3246 3247 3248 3248 3248 3248 3249 3251 3251
3144 3142 3140 3138 3136 3136 3144 3160 3166 3169 3169 3165 3168 3170 3174 3180 3185 3185 3186 3188 3193 3196 3202 3206 3210 3215 3218 3221 3223 3226 3228 3230 3231 3234 3237 3239 3239 3239 3241 3245 3245 3246 3247 3249 3248 3249 3248 3249 3250
3139 3145 3141 3139 3130 3129 3138 3154 3156 3166 3167 3165 3167 3168 3171 3173 3180 3177 3181 3183 3169 3183 3193 3199 3205 3211 3216 3220 3222 3224 3226 3228 3230 3232 3234 3237 3238 3241 3236 3241 3244 3244 3246 3247 3248 3248 3249 3250 3250
3141 3140 3138 3137 3129 3123 3139 3150 3155 3161 3161 3164 3166 3167 3169 3170 3172 3171 3171 3178 3181 3189 3189 3191 3200 3206 3212 3216 3219 3222 3225 3227 3228 3230 3232 3234 3236 3239 3239 3240 3242 3243 3244 3245 3247 3248 3249 3249 3250
3135 3138 3141 3137 3135 3129 3133 3156 3158 3159 3161 3163 3165 3166 3167 3169 3169 3169 3170 3157 3136 3178 3183 3169 3192 3204 3208 3213 3216 3219 3222 3224 3226 3227 3229 3231 3233 3235 3237 3237 3239 3240 3242 3244 3245 3246 3247 3248 3249
Wind_Speed
5 5 4 2 1 2 3 6 12 15 15 15 17 16 11 9 6 9 26 24 24 24 23 20 18 17 15 12 10 8 8 7 5 4 3 3 4 4 4 4 4 5 6 6 7 8 10 12 12
7 6 4 3 3 3 6 13 15 14 18 18 19 16 9 5 8 24 26 24 22 22 20 16 15 14 12 10 9 9 8 8 8 7 6 5 6 4 5 5 5 6 8 8 8 9 12 13 11
4 4 4 2 3 5 9 12 16 19 19 18 19 13 9 13 23 26 24 25 19 20 17 15 13 12 10 10 9 9 8 8 7 6 5 5 6 6 6 6 7 8 9 11 11 11 13 14 12
5 3 4 8 12 12 15 18 21 23 19 12 14 10 10 18 22 23 25 23 20 20 16 14 12 11 10 9 7 6 5 5 4 5 4 5 6 6 7 7 7 9 12 12 13 14 15 13 8
5 4 5 8 13 15 18 18 18 17 18 16 6 12 20 22 22 25 25 21 17 12 15 13 11 10 9 8 6 5 5 5 4 4 5 5 5 5 6 7 8 11 12 12 14 9 10 14 2
8 5 2 9 14 15 17 21 11 15 16 14 10 15 21 25 25 25 23 19 17 11 15 14 11 9 7 6 6 6 5 4 4 5 4 5 6 6 5 7 10 12 14 11 9 12 27 13 8
5 1 2 9 13 15 14 16 16 11 13 15 12 13 24 28 25 24 21 19 18 14 12 13 10 8 7 7 6 5 4 3 5 5 5 5 6 5 6 9 13 15 18 13 23 27 11 9 9
1 2 3 3 7 9 14 15 16 16 13 11 12 12 26 29 27 24 21 18 19 15 9 5 9 9 7 7 7 7 6 7 7 9 8 6 5 7 11 14 16 17 17 23 20 13 11 9 10
3 4 8 5 4 11 14 15 8 8 11 12 9 17 24 28 27 23 22 20 20 19 12 11 12 9 9 8 8 7 7 9 11 12 9 10 9 11 12 17 18 18 16 17 11 9 9 10 11
1 4 7 8 7 11 15 13 15 8 8 10 16 23 25 27 26 23 21 17 14 16 13 8 7 9 8 11 9 9 8 11 11 15 5 13 10 14 15 18 19 16 16 13 10 9 8 15 13
3 5 7 9 11 10 8 13 16 16 9 9 18 22 26 26 24 22 20 18 16 15 11 12 10 12 10 10 8 10 11 11 15 14 12 14 11 16 17 15 16 13 11 10 8 9 7 17 10
4 4 4 5 6 6 6 4 18 20 11 13 17 19 27 26 23 21 20 18 17 16 15 11 12 13 12 14 10 9 9 10 10 12 13 12 9 15 13 9 14 11 6 6 9 3 12 11 12
8 6 4 3 2 3 3 5 12 18 13 12 16 26 28 24 22 21 21 18 18 16 15 12 12 11 12 14 15 11 13 7 11 12 14 14 9 11 14 14 12 10 9 7 4 8 4 11 9
8 6 4 3 4 4 6 12 13 19 10 8 25 30 27 24 22 20 20 19 17 16 15 13 12 12 12 12 13 11 11 9 8 10 11 12 11 9 12 15 13 3 4 8 10 14 11 6 9
10 8 4 4 10 7 10 9 3 21 11 11 29 28 25 23 21 20 18 18 16 16 14 12 12 11 11 12 10 10 12 6 9 9 9 9 10 12 13 12 9 9 7 7 11 7 8 5 7
12 9 13 11 9 7 7 8 15 17 12 16 27 26 24 22 20 19 18 17 17 16 14 13 12 11 11 12 10 12 12 10 7 6 5 6 7 9 10 10 7 6 8 8 10 10 9 8 3
17 17 15 13 10 6 4 16 17 14 14 21 28 24 23 22 19 19 18 17 18 18 16 13 13 11 10 10 11 9 9 6 7 7 1 5 7 7 9 6 7 8 5 6 8 7 7 8 7
22 21 18 12 12 9 11 14 15 18 17 14 26 25 23 22 20 19 18 17 18 19 18 17 15 13 11 10 12 10 9 7 5 5 2 5 6 6 12 5 6 11 2 8 10 9 12 8 9
19 18 17 19 16 13 13 13 15 20 13 17 24 27 26 22 21 18 17 17 19 21 20 19 17 14 12 11 12 10 10 6 4 8 4 4 4 5 5 3 5 5 9 7 8 9 7 5 9
18 24 20 13 15 11 10 15 11 18 16 12 21 22 27 22 22 21 20 16 17 21 21 20 18 16 15 13 14 10 5 4 4 4 3 4 3 4 5 8 7 6 4 7 6 13 9 2 6
19 22 19 14 11 10 14 17 13 17 14 16 12 17 22 24 25 24 21 18 15 19 22 20 19 17 18 16 13 14 15 9 6 5 3 4 3 4 5 6 7 5 6 4 6 8 11 10 3
23 20 18 21 18 18 21 14 19 19 14 14 15 21 20 27 27 25 26 21 15 15 19 20 19 19 19 16 13 13 10 4 4 6 7 3 3 2 3 4 4 7 8 4 6 8 12 6 3
20 19 14 18 21 15 24 13 9 20 14 14 11 15 17 21 26 25 24 23 19 18 20 20 19 19 18 17 19 15 11 11 11 8 9 4 4 3 2 2 4 4 5 2 8 9 10 15 12
9 23 18 15 20 19 18 16 20 20 12 15 12 12 14 19 21 28 27 22 23 20 20 22 21 19 17 15 15 14 15 12 9 10 7 7 5 3 2 0 2 2 3 3 5 7 8 10 13
14 20 19 14 18 12 22 11 8 10 13 11 10 10 15 17 20 20 28 26 24 25 22 22 23 21 18 16 15 14 14 17 17 12 9 9 2 5 3 2 2 1 0 1 1 4 5 8 8
23 29 22 13 14 18 15 14 15 13 12 10 14 7 13 18 23 21 19 33 28 28 26 24 24 22 20 17 15 14 14 14 15 13 13 12 14 9 5 4 3 3 3 2 1 1 3 9 9
26 30 30 19 23 21 19 14 16 13 11 8 11 13 11 18 22 22 27 30 27 33 30 29 24 22 21 19 16 14 13 13 13 13 15 11 17 8 9 6 5 3 4 4 4 2 1 3 7
12 26 28 19 14 16 22 23 18 15 7 10 10 11 13 21 25 16 26 28 39 31 30 26 26 23 20 20 19 16 13 13 13 14 13 15 16 17 16 10 8 6 4 6 6 5 3 3 3
18 17 25 21 24 12 13 13 19 16 13 13 11 10 10 12 29 32 35 32 27 25 28 26 25 26 24 23 22 20 18 15 14 14 15 15 15 14 16 15 11 8 7 6 7 7 9 6 5
12 19 23 22 24 22 7 15 13 15 14 14 13 11 9 11 18 21 20 14 15 35 24 40 26 24 26 27 26 24 23 22 19 16 15 16 16 16 17 16 14 12 10 8 8 9 10 8 8
Wind_Direction
97 102 97 103 222 223 111 109 117 120 119 123 122 124 124 138 124 130 150 150 148 139 138 136 135 134 130 120 113 110 113 109 106 107 95 87 84 86 93 100 107 115 130 135 118 102 84 83 78
101 87 59 73 162 172 94 112 122 125 123 131 124 117 105 92 172 141 149 148 141 142 140 137 131 129 127 120 109 108 104 107 110 105 99 96 94 84 75 74 88 108 123 129 120 105 91 83 76
100 92 241 204 150 85 115 121 116 125 123 124 129 136 135 93 127 141 150 141 143 140 143 136 131 123 118 121 116 111 105 111 105 86 83 88 86 87 95 97 101 111 122 126 119 110 107 90 67
93 39 295 120 119 94 113 117 123 131 132 128 116 118 114 131 130 148 144 135 140 150 148 140 133 127 126 123 119 106 110 115 105 95 96 88 85 86 88 92 100 104 118 124 117 112 120 115 45
72 284 287 112 104 110 114 119 130 124 123 130 130 118 125 137 146 144 134 141 140 154 146 145 141 138 132 126 123 116 116 119 114 107 98 89 79 79 90 97 109 114 117 119 122 137 125 121 125
269 289 279 135 126 127 134 133 136 135 131 126 113 137 142 151 148 143 136 144 141 145 145 140 134 133 128 125 118 110 104 107 107 101 93 89 79 73 81 108 116 120 111 102 120 132 131 150 102
275 270 65 135 136 140 148 148 141 142 139 126 122 130 145 151 151 141 139 148 142 140 144 136 135 129 122 114 102 96 95 114 121 114 96 87 78 79 101 121 126 124 120 95 121 146 117 92 92
176 22 341 103 170 158 164 154 165 156 165 157 124 158 152 154 150 143 146 150 145 147 137 144 124 124 115 110 108 103 88 90 115 113 104 90 77 89 109 116 125 125 121 133 122 116 90 87 85
274 77 56 35 179 166 170 168 181 143 139 125 136 160 157 154 150 147 149 176 141 159 143 163 160 131 124 122 115 99 93 102 107 112 108 84 52 105 112 118 126 124 122 127 122 114 81 77 82
266 109 59 56 102 150 173 175 191 147 143 149 127 151 162 154 149 153 153 155 160 138 148 113 146 129 134 125 118 101 73 108 117 107 89 110 107 105 111 122 127 125 123 129 128 104 52 98 51
155 95 94 92 97 113 144 184 185 180 151 160 162 164 167 156 152 154 156 153 157 146 175 170 168 146 122 115 81 70 50 115 123 124 102 98 109 117 113 115 127 128 126 129 123 79 39 79 91
189 133 106 126 99 109 135 160 186 179 181 156 164 170 168 158 155 156 159 152 165 162 160 181 152 134 159 121 113 115 140 113 115 121 120 131 93 117 114 133 120 117 83 154 115 112 98 99 110
195 156 154 146 107 127 179 148 155 181 179 169 189 165 164 158 157 161 160 166 170 160 156 181 149 138 139 117 129 133 90 142 132 124 120 120 116 115 113 118 125 124 122 119 100 83 54 68 58
205 183 209 206 183 133 109 132 155 174 171 152 158 161 161 161 159 164 162 177 170 165 164 168 150 143 146 152 135 128 160 121 128 129 124 133 106 106 109 93 98 96 118 111 103 74 87 134 58
203 191 177 175 164 142 134 140 172 170 159 144 146 156 161 165 165 168 169 176 173 177 175 169 155 148 146 149 145 147 101 125 137 138 135 130 124 125 122 138 116 154 134 126 112 111 84 59 61
202 204 187 168 150 182 182 132 148 158 160 153 153 161 165 168 173 172 174 173 178 182 189 176 165 157 153 155 149 133 125 137 148 136 148 144 137 135 138 130 123 192 94 130 102 102 76 121 92
203 202 170 170 181 174 186 142 164 149 151 157 163 170 171 172 177 178 180 177 186 185 185 184 177 171 165 152 149 147 128 112 126 143 89 129 124 135 136 164 160 129 159 113 97 128 80 91 95
197 215 175 182 188 191 143 134 169 162 151 176 172 183 179 179 181 184 183 181 190 193 188 185 187 182 171 159 159 150 128 121 120 129 203 132 121 126 123 188 160 133 118 162 152 148 131 99 127
214 212 220 205 164 177 168 139 174 171 154 172 180 184 182 182 187 190 185 189 192 197 195 192 193 185 176 168 162 148 124 129 139 141 156 119 129 130 158 178 154 172 145 154 179 138 109 112 132
223 209 187 181 168 183 152 147 164 163 171 177 179 186 184 181 190 192 187 191 191 203 199 199 197 191 184 173 166 168 174 149 163 160 162 135 164 129 121 176 160 162 151 179 159 128 128 136 108
211 204 171 187 185 196 171 148 162 165 171 173 187 185 191 183 191 199 192 195 197 208 205 200 200 197 185 177 170 163 182 150 183 139 133 135 147 123 112 111 214 149 176 200 180 140 149 143 157
202 202 185 207 192 193 190 165 176 178 181 193 185 193 184 182 206 209 198 185 194 201 189 192 189 189 186 180 176 173 178 141 140 192 152 214 145 139 119 92 110 154 158 210 208 171 160 144 98
206 196 188 193 208 202 196 147 261 160 186 187 195 198 199 189 200 214 217 197 182 201 186 181 178 178 182 180 177 186 173 223 132 238 224 200 167 143 132 107 84 85 94 209 171 176 168 148 136
217 189 197 208 223 238 219 198 189 165 172 186 203 217 205 214 200 198 212 216 187 208 198 188 180 175 179 184 186 187 178 171 201 205 222 186 165 185 171 240 98 68 111 217 201 182 183 189 174
190 187 194 210 218 226 215 177 141 100 141 146 174 213 213 219 223 211 208 201 207 199 204 208 190 179 176 181 188 191 188 185 193 206 188 135 255 298 195 242 263 239 150 350 199 213 223 209 209
200 198 198 193 206 208 210 146 133 138 132 141 172 186 195 221 202 223 213 198 205 198 210 209 205 186 183 183 185 195 199 197 196 198 191 188 183 212 233 237 242 280 285 252 224 228 254 242 233
201 220 209 259 209 210 150 99 125 138 133 187 182 182 157 170 215 211 200 206 211 197 210 208 209 205 198 192 190 195 205 209 208 204 213 194 221 218 193 239 218 249 269 266 259 267 229 308 238
218 208 231 237 249 213 140 162 165 162 152 159 172 182 197 179 176 213 214 217 213 200 207 211 211 214 213 212 202 202 204 212 218 220 229 235 217 208 217 207 216 219 241 255 261 273 288 276 257
217 220 227 225 251 213 154 124 145 160 167 168 167 177 188 194 192 206 213 211 194 206 202 207 210 212 214 218 215 213 214 217 220 225 229 235 241 232 221 226 231 224 228 237 253 263 252 263 261
209 215 214 234 229 261 338 107 155 141 167 177 159 157 171 177 195 207 206 258 164 178 198 192 196 218 222 220 224 221 221 223 223 222 226 232 236 241 239 234 238 239 240 246 249 248 257 258 264